Погода Троицко-Печерск

Погода Троицко-Печерск : погода сейчас, прогноз погоды и архив. Всё, что Вы хотите узнать о погоде Троицко-Печерск!

Хотите узнать прогноз погоды Троицко-Печерск? Тогда Вам сюда: Погода Троицко-Печерск

Поиск расширенной информации на нашем сайте:

Другие новости

Новости СМИ2

Главная страница сайта

Новости сайта

03.07.2017

Напоминаем, что на нашем специализированном сайте Метеоцентр.Азия вы можете получить высокодетализированные автоматические прогнозы погоды по пунктам России, СНГ и мира в авиационном формате (включающие направление и скорость ветра, видимость, явления погоды, количество и форму облачности, нижнюю и верхнюю границу облачности).

Рекомендуем: Заказать где купить постельное белье.

Погода Троицко-Печерск - сегодня

Время (UTC), дата Ветер
(°,м/с) 
Видим.   Явления Облачность Т
(°С)
Тd
(°С)
f(%) Тe
(°С)
Pmin
(гПа)
dP
(гПа)
Po
(мм)
O2
(г/м3)
Тmin Tmax R s Состояние
почвы
15 20.04.18 340 (С) 20000 м    8/5 300 м кучево-дожд., верхняя 
[Cb cap|Ci fib]
-3.9 -14.1 45 -6  1008.5  743  305           
18 20.04.18 270 (З) 20000 м    3/0 верхняя 
[Ci fib]
-8.6 -13.4 68 -8  1009.7  0.3  744  311           
21 20.04.18 260 (З) 20000 м    6/0 верхняя 
[Ci fib]
-8.4 -13.7 66 -8  1008.7  -1  743  310           
00 21.04.18 280 (З) 10 км  слаб. ливневой снег  6/4 600 м кучево-дожд., верхняя 
[Cb cap|Ci fib]
-9.4 -11.5 85 -9  1008.7  -0.1  743  311           
03 21.04.18 320 (СЗ) 20000 м  слаб. ливневой снег  3/1 600 м верхняя 
[Cu hum|Ci fib]
-8.5 -11.3 80 -8  1008.4  -0.2  743  310  -11.3    0.3  81  равномерный
сухой снег
100% 
12 21.04.18 060 (СВ) 20000 м  {ливн. осадки}  8/3 300 м кучево-дожд., средняя, верхняя 
[Cb cap|Ac trans|Ci fib]
-3.9 -11.1 57 -5  1006.8  -0.6  742  304           
18 21.04.18 тихо ()   20000 м    3/0 верхняя 
[Ci fib]
-10.5 -14.1 75 -11  1007.4  0.4  742  312           
21 21.04.18 тихо ()   20000 м    4/0 верхняя 
[Ci fib]
-14.4 -15.4 92 -14  1007.7  742  317           
00 22.04.18 340 (С) 20000 м    6/4 600 м кучево-дожд., верхняя 
[Cb cap|Ci fib]
-16.8 -17.4 95 -17  1007.8  742  320           
03 22.04.18 020 (С) 20000 м    3/0 верхняя 
[Ci fib]
-10.9 -12.9 85 -13  1007.5  0.1  742  313  -17      79  равномерный
сухой снег
100% 
06 22.04.18 060 (СВ) 20000 м    6/0 верхняя 
[Ci fib]
-5.4 -12.4 58 -9  1007.1  -0.1  742  306           
09 22.04.18 080 (В) 20000 м    4/0 верхняя 
[Ci fib]
-2.7 -11.6 50 -6  1006.6  -0.3  742  303           
12 22.04.18 070 (В) 20000 м    8/0 верхняя 
[Ci fib]
-0.8 -13.1 39 -4  1005.9  -0.5  741  301           
18 22.04.18 050 (СВ) 20000 м    10/0 верхняя 
[Cs]
-3 -12.7 47 -6  1006.8  0.5  742  303           
21 22.04.18 040 (СВ) 20000 м    10/0 средняя, верхняя 
[Ac As|Cs]
-4.2 -12.1 54 -8  1005.8  -1.1  741  304           
00 23.04.18 040 (СВ) 20000 м    10/0 средняя, верхняя 
[Ac As|Cs]
-4.7 -11.4 59 -9  1004.3  -1.4  740  304           
03 23.04.18 040 (СВ) 10 км  слаб. снег  10/0 средняя 
[As op]
-4.6 -8.1 76 -8  1003  -0.7  739  304  -4.8    0.0  78  равномерный
мокрый или
старый снег
100% 
15 23.04.18 030 (СВ) 4000 м  слаб. ливневой снег  10/6 420 м кучево-дожд., средняя 
[Cb cap|Ac As]
-1.4 -3.4 86 -4  1006.4  1.1  742  301    -1.4     
18 23.04.18 030 (СВ) 20000 м  {ливн. осадки}  10/8 540 м кучево-дожд., средняя 
[Cb cap|Ac As]
-1.7 -5.5 75 -4  1006.8  0.2  742  301           
21 23.04.18 010 (С) 20000 м  {ливн. осадки}  10/6 480 м кучево-дожд., средняя 
[Cb cap|Ac As]
-2.8 -5.5 82 -2  1006.5  0.2  742  303           
00 24.04.18 360 (С) 20000 м  {ливн. осадки}  8/0 средняя 
[Ac As]
-4.7 -7.1 83 -6  1007.2  -0.1  742  305           
03 24.04.18 360 (С) 20000 м    8/0 средняя, верхняя 
[Ac trans|Ci fib]
-3.9 -9.5 65 -6  1007.2  0.5  743  304  -5.5    0.0  86  равномерный
сухой снег
100% 
06 24.04.18 360 (С) 20000 м    3/0 средняя, верхняя 
[Ac trans|Ci fib]
+0.1 -8.8 51 -2  1008  0.4  743  300           
09 24.04.18 360 (С) 20000 м    3/0 средняя 
[Ac trans]
+3 -8.9 41 +1  1008.1  0.3  743  297           
12 24.04.18 360 (С) 20000 м    3/0 средняя 
[Ac trans]
+4.6 -10.2 33 +3  1008.3  0.2  743  296           
Время (UTC), дата Ветер
(°,м/с) 
Видим.   Явления Облачность Т
(°С)
Тd
(°С)
f(%) Тe
(°С)
Pmin
(гПа)
dP
(гПа)
Po
(мм)
O2
(г/м3)
Тmin Tmax R s Состояние
почвы

Для получения пояснительной информации подведите курсор к названию столбца.

ПОГОДА Троицко-Печерск - архив

Всё, что Вы хотите узнать о погоде Троицко-Печерск - удобно и подробно!

Выберите нужную дату (начиная с 1 января 2015* года) и нажмите кнопку "Найти".
Будут отображены архивные сводки погоды по пункту Троицко-Печерск, начиная с указанной даты.


Отображать данные в формате CSV (для использования в таблицах Excel)


Внимание! Наш архив погоды предназначен исключительно для личного некоммерческого использования в познавательных целях. Если Вам необходимы официальные справки о состоянии погоды (для производственных, юридических, коммерческих и т.п. целей), обращайтесь в органы Росгидромета.

*Примечание: данная дата относится к архиву по метеостанциям СССР (Россия, СНГ, Балтия).
Архив по метеостанциям Зарубежной Европы и Азии (кроме Китая) хранится 10 дней, по другим регионам земного шара (Китай, Африка, Америка, Австралия, Океания) - 1 день.

Троицко-Печерск - район местоположения метеостанции


Название, широта, долгота, высота метеостанции:
Троицко-Печерск 62.7°ш. 56.2°д. 139 м над ур. моря [Российская Федерация]

Дополнительная информация

В oтличие oт бoльшинства пoгoдных сайтoв мы публикуем пoдрoбную метеoинфoрмацию в детальнoм прoфессиoнальнoм фoрмате.

Характеристики температуры и влажнoсти вoздуха измеряются на высoте 2 м в тени вдали oт зданий и деревьев.
Скoрoсть ветра измеряется на высoте 10 м (на урoвне рoста челoвека скoрoсть ветра ниже в 1.5-2 раза). Если метеoстанция нахoдится в гoрoде или в лесу, тo скoрoсть ветра занижена на 2-4 м/с пo сравнению с oткрытым местoм. Скoрoсть ветра над акватoриями крупных рек и oзёр, а также на вершинах хoлмoв на 2-5 м/с выше, чем в oбычных услoвиях.
Атмoсфернoе давление в разных тoчках местнoсти мoжет значительнo oтличаться oт давления на метеoстанции, в зависимoсти oт услoвий рельефа (при пoдъёме на 10 м давление пoнижается примернo на 1 мм рт.ст.).